Weather History for KCFS - April, 2014

Change the Weather History Date:

Sunday, April 6, 2014

  Actual Average (KMBS) Record (KMBS)
Temperature  
Mean Temperature 41 °F 42 °F  
Max Temperature 58 °F 52 °F 68 °F (1997)
Min Temperature 24 °F 33 °F 17 °F (2003)
Degree Days  
Heating Degree Days 24    
Month to date heating degree days  
Since 1 July heating degree days  
Cooling Degree Days 0    
Month to date cooling degree days  
Year to date cooling degree days  
Moisture  
Dew Point 25 °F    
Average Humidity 56    
Maximum Humidity 94    
Minimum Humidity 25    
Precipitation  
Precipitation 0.00 in 0.09 in 0.05 in (1997)
Month to date precipitation 0.51  
Year to date precipitation 5.89  
Snow  
Snow 0.00 in - - ()
Month to date snowfall  
Since 1 July snowfall  
Snow Depth -    
Sea Level Pressure  
Sea Level Pressure 30.10 in    
Wind  
Wind Speed 3 mph (South)    
Max Wind Speed 12 mph    
Max Gust Speed 25 mph    
Visibility 10 miles    
Events      
T = Trace of Precipitation, MM = Missing Value Source: NWS Daily Summary

Daily Weather History Graph

Daily Weather History Graph

Search for Another Location

Airport or City:

Trip Planner

Search our weather history database for the weather conditions in past years. The results will help you decide how hot, cold, wet, or windy it might be!

Date:

Astronomy

Apr. 06, 2014 Rise Set
Actual Time 7:06 AM EDT 8:06 PM EDT
Civil Twilight 6:37 AM EDT 8:35 PM EDT
Nautical Twilight 6:02 AM EDT 9:10 PM EDT
Astronomical Twilight 5:26 AM EDT 9:46 PM EDT
Moon 12:01 PM EDT (4/6) 2:07 AM EDT (4/6)
Length of Visible Light 13h 57m
Length of Day
12h 59m
Waxing Crescent, 43% of the Moon is Illuminated
Apr 6
Waxing Crescent
Apr 7
First Quarter
Apr 15
Full
Apr 22
Last Quarter
Apr 29
New

Hourly Weather History & Observations

Time (EDT) Temp. Windchill Dew Point Humidity Pressure Visibility Wind Dir Wind Speed Gust Speed Precip Events Conditions
12:15 AM 27.3 °F - 24.8 °F 90% 30.15 in 10.0 mi Calm Calm - N/A   Clear
12:35 AM 27.5 °F - 25.2 °F 91% 30.15 in 10.0 mi Calm Calm - N/A   Clear
12:55 AM 26.8 °F - 24.4 °F 91% 30.15 in 10.0 mi Calm Calm - N/A   Clear
1:15 AM 26.6 °F - 24.4 °F 92% 30.16 in 10.0 mi Calm Calm - N/A   Clear
1:35 AM 26.8 °F - 24.1 °F 90% 30.15 in 10.0 mi Calm Calm - N/A   Clear
1:55 AM 25.7 °F - 23.7 °F 92% 30.15 in 10.0 mi Calm Calm - N/A   Clear
2:15 AM 27.0 °F - 25.2 °F 93% 30.15 in 10.0 mi Calm Calm - N/A   Clear
2:35 AM 26.1 °F - 24.1 °F 92% 30.15 in 10.0 mi Calm Calm - N/A   Clear
2:55 AM 26.4 °F - 24.6 °F 93% 30.15 in 10.0 mi Calm Calm - N/A   Clear
3:15 AM 25.7 °F - 24.3 °F 94% 30.15 in 10.0 mi Calm Calm - N/A   Clear
3:35 AM 26.6 °F - 24.8 °F 93% 30.15 in 10.0 mi Calm Calm - N/A   Clear
3:55 AM 27.3 °F - 24.3 °F 88% 30.15 in 10.0 mi Calm Calm - N/A   Clear
4:14 AM 26.4 °F - 23.0 °F 87% 30.15 in 10.0 mi Calm Calm - N/A   Clear
4:35 AM 26.4 °F - 23.7 °F 90% 30.15 in 10.0 mi Calm Calm - N/A   Clear
4:55 AM 26.2 °F - 23.5 °F 90% 30.15 in 10.0 mi Calm Calm - N/A   Clear
5:15 AM 25.3 °F - 23.0 °F 91% 30.15 in 10.0 mi Calm Calm - N/A   Clear
5:35 AM 26.6 °F - 24.4 °F 92% 30.15 in 10.0 mi Calm Calm - N/A   Clear
5:55 AM 25.7 °F - 22.8 °F 89% 30.15 in 10.0 mi Calm Calm - N/A   Clear
6:15 AM 25.3 °F - 22.8 °F 90% 30.15 in 10.0 mi Calm Calm - N/A   Clear
6:35 AM 24.8 °F - 22.6 °F 91% 30.15 in 10.0 mi Calm Calm - N/A   Clear
6:55 AM 26.6 °F - 23.9 °F 90% 30.16 in 10.0 mi Calm Calm - N/A   Clear
7:15 AM 25.0 °F - 22.5 °F 90% 30.16 in 10.0 mi Calm Calm - N/A   Clear
7:35 AM 27.0 °F - 24.4 °F 90% 30.17 in 10.0 mi Calm Calm - N/A   Clear
7:55 AM 28.0 °F - 25.0 °F 88% 30.17 in 10.0 mi Calm Calm - N/A   Clear
8:15 AM 31.8 °F - 26.2 °F 80% 30.17 in 10.0 mi Calm Calm - N/A   Clear
8:35 AM 32.7 °F - 26.1 °F 76% 30.17 in 10.0 mi Calm Calm - N/A   Clear
8:55 AM 35.2 °F - 27.7 °F 74% 30.17 in 10.0 mi Calm Calm - N/A   Clear
9:15 AM 39.0 °F 35.7 °F 27.0 °F 62% 30.17 in 10.0 mi SSW 4.6 mph - N/A   Clear
9:35 AM 41.4 °F 37.6 °F 25.0 °F 52% 30.17 in 10.0 mi SSW 5.8 mph - N/A   Clear
9:54 AM 43.5 °F 38.3 °F 24.4 °F 47% 30.18 in 10.0 mi SW 9.2 mph - N/A   Clear
10:15 AM 46.0 °F 41.4 °F 23.5 °F 41% 30.17 in 10.0 mi SW 9.2 mph - N/A   Clear
10:35 AM 47.5 °F - 23.5 °F 39% 30.17 in 10.0 mi SSW 11.5 mph - N/A   Clear
10:55 AM 48.6 °F - 23.4 °F 37% 30.17 in 10.0 mi SW 11.5 mph - N/A   Clear
11:15 AM 49.8 °F - 24.3 °F 37% 30.17 in 10.0 mi WSW 11.5 mph 16.1 mph N/A   Clear
11:55 AM 51.4 °F - 26.6 °F 38% 30.15 in 10.0 mi West 5.8 mph - N/A   Clear
12:15 PM 52.3 °F - 28.2 °F 39% 30.15 in 10.0 mi West 9.2 mph - N/A   Clear
12:35 PM 53.1 °F - 28.9 °F 40% 30.13 in 10.0 mi West 9.2 mph - N/A   Clear
12:55 PM 53.4 °F - 28.4 °F 38% 30.12 in 10.0 mi West 8.1 mph - N/A   Clear
1:14 PM 54.1 °F - 28.4 °F 37% 30.12 in 10.0 mi West 8.1 mph - N/A   Clear
1:35 PM 54.3 °F - 28.6 °F 37% 30.12 in 10.0 mi West 8.1 mph - N/A   Clear
1:55 PM 55.4 °F - 28.2 °F 35% 30.11 in 10.0 mi South 9.2 mph 25.3 mph N/A   Clear
2:15 PM 55.9 °F - 26.4 °F 32% 30.11 in 10.0 mi SSW 4.6 mph 17.3 mph N/A   Clear
2:35 PM 56.5 °F - 27.0 °F 32% 30.10 in 10.0 mi SW 9.2 mph 21.9 mph N/A   Clear
2:55 PM 56.5 °F - 25.9 °F 31% 30.09 in 10.0 mi SSW 5.8 mph 19.6 mph N/A   Clear
3:15 PM 56.7 °F - 25.3 °F 30% 30.08 in 10.0 mi SSW 9.2 mph - N/A   Clear
3:35 PM 56.5 °F - 25.5 °F 30% 30.07 in 10.0 mi SSE 4.6 mph 16.1 mph N/A   Clear
3:55 PM 56.3 °F - 24.6 °F 29% 30.06 in 10.0 mi SSE 10.4 mph - N/A   Clear
4:15 PM 57.0 °F - 24.4 °F 29% 30.05 in 10.0 mi South 5.8 mph - N/A   Clear
4:35 PM 57.2 °F - 22.5 °F 26% 30.05 in 10.0 mi South 6.9 mph - N/A   Clear
4:55 PM 57.9 °F - 23.2 °F 26% 30.03 in 10.0 mi SSW 6.9 mph - N/A   Clear
5:15 PM 58.1 °F - 23.4 °F 26% 30.02 in 10.0 mi East 3.5 mph - N/A   Clear
5:35 PM 57.9 °F - 23.2 °F 26% 30.01 in 10.0 mi South 9.2 mph - N/A   Clear
5:55 PM 57.9 °F - 23.4 °F 26% 30.00 in 10.0 mi South 8.1 mph - N/A   Clear
6:15 PM 57.4 °F - 21.9 °F 25% 30.00 in 10.0 mi SSE 5.8 mph - N/A   Clear
6:35 PM 56.7 °F - 22.6 °F 27% 30.00 in 10.0 mi South 5.8 mph - N/A   Clear
6:54 PM 56.5 °F - 23.2 °F 28% 30.02 in 10.0 mi SSE 5.8 mph - N/A   Clear
7:15 PM 56.1 °F - 23.2 °F 28% 30.02 in 10.0 mi ESE 8.1 mph - N/A   Clear
7:35 PM 53.6 °F - 25.7 °F 34% 30.02 in 10.0 mi SE 11.5 mph - N/A   Clear
7:55 PM 52.5 °F - 23.9 °F 33% 30.02 in 10.0 mi SSE 8.1 mph - N/A   Clear
8:15 PM 51.3 °F - 23.7 °F 34% 30.03 in 10.0 mi SSE 8.1 mph - N/A   Clear
8:34 PM 50.2 °F - 23.7 °F 36% 30.03 in 10.0 mi SSE 8.1 mph - N/A   Clear
8:55 PM 48.6 °F - 24.3 °F 39% 30.04 in 10.0 mi SSE 6.9 mph - N/A   Clear
9:15 PM 48.0 °F - 23.5 °F 38% 30.03 in 10.0 mi SSE 8.1 mph - N/A   Clear
9:35 PM 46.6 °F - 23.0 °F 39% 30.02 in 10.0 mi SE 4.6 mph - N/A   Clear
9:55 PM 44.8 °F 43.3 °F 23.2 °F 43% 30.03 in 10.0 mi SE 3.5 mph - N/A   Clear
10:15 PM 45.1 °F 43.7 °F 23.9 °F 43% 30.04 in 10.0 mi SSE 3.5 mph - N/A   Clear
10:35 PM 44.8 °F 43.3 °F 23.9 °F 44% 30.04 in 10.0 mi SSE 3.5 mph - N/A   Clear
10:55 PM 44.6 °F - 23.7 °F 44% 30.03 in 10.0 mi Calm Calm - N/A   Clear
11:15 PM 44.4 °F 42.9 °F 23.0 °F 43% 30.03 in 10.0 mi SSE 3.5 mph - N/A   Clear
11:35 PM 43.0 °F - 23.0 °F 45% 30.03 in 10.0 mi Calm Calm - N/A   Clear
11:55 PM 41.9 °F - 23.9 °F 49% 30.02 in 10.0 mi Calm Calm - N/A   Clear